DAL2525 YWLM-YBBN

Flight info

Callsign DAL2525
Flight time 1h 13m
Altitude 39000
Route LM510 DCT UBSON DCT NICLA DCT BANDA H252 GOMOL
Aircraft A346/H-SDE2E3FGHIJ3J4J5M1RWXY/LB1D1

Departure

Time 2026-04-26 12:28
Airport Newcastle Airport (YWLM)

Arrival

Time 2026-04-26 13:42
Airport Brisbane International Airport (YBBN)
Time Latitude Longitude Altitude Speed Heading
2026-04-26 12:06 -32.79511 151.84114 38 ft 0 kts 55°
2026-04-26 12:19 -32.79512 151.84112 38 ft 1 kts 55°
2026-04-26 12:19 -32.79521 151.84099 37 ft 3 kts 37°
2026-04-26 12:20 -32.79530 151.84093 38 ft 3 kts
2026-04-26 12:20 -32.79534 151.84093 38 ft 3 kts 328°
2026-04-26 12:20 -32.79548 151.84107 35 ft 3 kts 314°
2026-04-26 12:20 -32.79562 151.84124 36 ft 3 kts 318°
2026-04-26 12:21 -32.79573 151.84135 38 ft 1 kts 325°
2026-04-26 12:21 -32.79574 151.84135 38 ft 0 kts 326°
2026-04-26 12:22 -32.79572 151.84134 38 ft 1 kts 326°
2026-04-26 12:22 -32.79556 151.84121 35 ft 4 kts 326°
2026-04-26 12:23 -32.79520 151.84092 36 ft 8 kts 326°
2026-04-26 12:23 -32.79464 151.84046 39 ft 12 kts 325°
2026-04-26 12:23 -32.79420 151.84046 39 ft 4 kts 99°
2026-04-26 12:23 -32.79443 151.84035 39 ft 7 kts 241°
2026-04-26 12:24 -32.79471 151.83969 39 ft 11 kts 238°
2026-04-26 12:24 -32.79521 151.83881 39 ft 15 kts 233°
2026-04-26 12:24 -32.79562 151.83765 39 ft 16 kts 279°
2026-04-26 12:25 -32.79407 151.83520 40 ft 22 kts 309°
2026-04-26 12:25 -32.79302 151.83373 40 ft 24 kts 311°
2026-04-26 12:25 -32.79194 151.83229 42 ft 21 kts 312°
2026-04-26 12:25 -32.79108 151.83105 43 ft 20 kts 308°
2026-04-26 12:26 -32.79016 151.82968 42 ft 23 kts 310°
2026-04-26 12:26 -32.78930 151.82852 44 ft 15 kts 312°
2026-04-26 12:26 -32.78850 151.82745 44 ft 19 kts 310°
2026-04-26 12:26 -32.78790 151.82643 44 ft 12 kts 284°
2026-04-26 12:27 -32.78818 151.82555 41 ft 9 kts 225°
2026-04-26 12:27 -32.78889 151.82519 41 ft 13 kts 173°
2026-04-26 12:27 -32.78909 151.82530 42 ft 0 kts 128°
2026-04-26 12:28 -32.78974 151.82626 43 ft 54 kts 129°
2026-04-26 12:28 -32.79437 151.83274 40 ft 148 kts 130°
2026-04-26 12:28 -32.80216 151.84409 480 ft 188 kts 129°
2026-04-26 12:28 -32.81059 151.85572 1742 ft 181 kts 127°
2026-04-26 12:29 -32.81662 151.86843 2789 ft 179 kts 100°
2026-04-26 12:29 -32.81639 151.88363 3458 ft 192 kts 73°
2026-04-26 12:29 -32.79740 151.90770 4872 ft 220 kts 17°
2026-04-26 12:30 -32.78218 151.90866 5884 ft 223 kts 346°
2026-04-26 12:30 -32.76852 151.90006 6897 ft 225 kts 318°
2026-04-26 12:30 -32.75749 151.88665 7843 ft 229 kts 316°
2026-04-26 12:31 -32.72796 151.87487 9565 ft 237 kts
2026-04-26 12:31 -32.71128 151.87472 10430 ft 243 kts
2026-04-26 12:31 -32.69418 151.87465 11272 ft 247 kts
2026-04-26 12:31 -32.67690 151.87450 12159 ft 250 kts
2026-04-26 12:32 -32.65932 151.87427 13075 ft 253 kts
2026-04-26 12:32 -32.64179 151.87398 13973 ft 257 kts
2026-04-26 12:32 -32.60557 151.87328 15570 ft 264 kts
2026-04-26 12:33 -32.58711 151.87291 16381 ft 267 kts
2026-04-26 12:33 -32.56843 151.87254 17182 ft 270 kts
2026-04-26 12:33 -32.54950 151.87217 17992 ft 274 kts
2026-04-26 12:33 -32.53032 151.87179 18762 ft 277 kts
2026-04-26 12:34 -32.51090 151.87141 19457 ft 281 kts
2026-04-26 12:34 -32.49126 151.87103 20146 ft 284 kts
2026-04-26 12:34 -32.47136 151.87065 20844 ft 287 kts
2026-04-26 12:34 -32.45121 151.87031 21520 ft 291 kts
2026-04-26 12:35 -32.43093 151.87200 22183 ft 294 kts 10°
2026-04-26 12:35 -32.41081 151.87689 22870 ft 297 kts 17°
2026-04-26 12:35 -32.39083 151.88377 23549 ft 301 kts 19°
2026-04-26 12:35 -32.37062 151.89106 24149 ft 305 kts 19°
2026-04-26 12:36 -32.35017 151.89846 24703 ft 309 kts 19°
2026-04-26 12:36 -32.32941 151.90594 25250 ft 314 kts 18°
2026-04-26 12:36 -32.30868 151.91335 25802 ft 318 kts 18°
2026-04-26 12:36 -32.28708 151.92105 26352 ft 322 kts 18°
2026-04-26 12:37 -32.26573 151.92863 26896 ft 327 kts 18°
2026-04-26 12:37 -32.24381 151.93641 27440 ft 331 kts 18°
2026-04-26 12:37 -32.22161 151.94429 27986 ft 335 kts 18°
2026-04-26 12:37 -32.19903 151.95228 28527 ft 340 kts 18°
2026-04-26 12:38 -32.17630 151.96032 29067 ft 344 kts 18°
2026-04-26 12:38 -32.15469 151.96796 29549 ft 348 kts 18°
2026-04-26 12:38 -32.13131 151.97622 30097 ft 353 kts 18°
2026-04-26 12:38 -32.10766 151.98457 30567 ft 357 kts 18°
2026-04-26 12:39 -32.08374 151.99303 31001 ft 361 kts 18°
2026-04-26 12:39 -32.05957 152.00165 31444 ft 365 kts 19°
2026-04-26 12:39 -32.03552 152.01171 31901 ft 368 kts 22°
2026-04-26 12:39 -32.01151 152.02273 32333 ft 371 kts 22°
2026-04-26 12:40 -31.98736 152.03390 32771 ft 375 kts 22°
2026-04-26 12:40 -31.96292 152.04519 33205 ft 378 kts 22°
2026-04-26 12:40 -31.93858 152.05642 33639 ft 382 kts 22°
2026-04-26 12:40 -31.91370 152.06787 34065 ft 386 kts 22°
2026-04-26 12:41 -31.88858 152.07943 34459 ft 389 kts 22°
2026-04-26 12:41 -31.86328 152.09105 34817 ft 392 kts 21°
2026-04-26 12:41 -31.83773 152.10277 35173 ft 395 kts 21°
2026-04-26 12:41 -31.81205 152.11455 35280 ft 396 kts 21°
2026-04-26 12:42 -31.78636 152.12632 35278 ft 396 kts 21°
2026-04-26 12:42 -31.73498 152.14985 35287 ft 396 kts 21°
2026-04-26 12:43 -31.68362 152.17334 35287 ft 396 kts 21°
2026-04-26 12:43 -31.63213 152.19686 35291 ft 396 kts 21°
2026-04-26 12:44 -31.58074 152.22031 35289 ft 396 kts 21°
2026-04-26 12:44 -31.52926 152.24377 35290 ft 397 kts 21°
2026-04-26 12:45 -31.47776 152.26722 35289 ft 397 kts 21°
2026-04-26 12:45 -31.42656 152.29050 35288 ft 397 kts 21°
2026-04-26 12:46 -31.37500 152.31392 35288 ft 397 kts 21°
2026-04-26 12:46 -31.32352 152.33727 35292 ft 397 kts 21°
2026-04-26 12:47 -31.27200 152.36061 35291 ft 397 kts 21°
2026-04-26 12:47 -31.22052 152.38391 35285 ft 397 kts 21°
2026-04-26 12:48 -31.16895 152.40722 35288 ft 397 kts 21°
2026-04-26 12:48 -31.11766 152.43038 35285 ft 397 kts 21°
2026-04-26 12:49 -31.06607 152.45364 35284 ft 397 kts 21°
2026-04-26 12:49 -31.01444 152.47689 35282 ft 397 kts 21°
2026-04-26 12:50 -30.96284 152.50011 35281 ft 397 kts 21°
2026-04-26 12:50 -30.91129 152.52327 35283 ft 397 kts 21°
2026-04-26 12:51 -30.85958 152.54646 35278 ft 398 kts 21°
2026-04-26 12:51 -30.80793 152.56957 35276 ft 397 kts 20°
2026-04-26 12:52 -30.75567 152.58943 35281 ft 397 kts 17°
2026-04-26 12:52 -30.70279 152.60860 35280 ft 397 kts 17°
2026-04-26 12:53 -30.64992 152.62775 35283 ft 397 kts 17°
2026-04-26 12:53 -30.59707 152.64689 35282 ft 397 kts 17°
2026-04-26 12:54 -30.54428 152.66599 35280 ft 397 kts 17°
2026-04-26 12:54 -30.49148 152.68508 35286 ft 398 kts 17°
2026-04-26 12:55 -30.43863 152.70416 35284 ft 398 kts 17°
2026-04-26 12:55 -30.38578 152.72322 35282 ft 398 kts 16°
2026-04-26 12:56 -30.33319 152.74216 35280 ft 398 kts 16°
2026-04-26 12:56 -30.28032 152.76118 35275 ft 398 kts 16°
2026-04-26 12:57 -30.22741 152.78019 35277 ft 398 kts 16°
2026-04-26 12:57 -30.17451 152.79918 35276 ft 398 kts 16°
2026-04-26 12:58 -30.10407 152.82443 35271 ft 398 kts 16°
2026-04-26 12:58 -30.05113 152.84338 35270 ft 398 kts 16°
2026-04-26 12:59 -29.99821 152.86229 35266 ft 398 kts 16°
2026-04-26 12:59 -29.94529 152.88119 35265 ft 398 kts 15°
2026-04-26 13:00 -29.89228 152.90012 35264 ft 398 kts 15°
2026-04-26 13:00 -29.83957 152.91893 35259 ft 399 kts 15°
2026-04-26 13:01 -29.78658 152.93781 35260 ft 399 kts 15°
2026-04-26 13:01 -29.73353 152.95668 35258 ft 399 kts 15°
2026-04-26 13:02 -29.68045 152.97553 35256 ft 399 kts 15°
2026-04-26 13:02 -29.62734 152.99438 35253 ft 399 kts 15°
2026-04-26 13:03 -29.57425 153.01320 35259 ft 399 kts 15°
2026-04-26 13:03 -29.52108 153.03201 35248 ft 400 kts 15°
2026-04-26 13:04 -29.46792 153.05081 35248 ft 400 kts 15°
2026-04-26 13:04 -29.41503 153.06949 35064 ft 393 kts 14°
2026-04-26 13:05 -29.38891 153.07871 34613 ft 393 kts 14°
2026-04-26 13:05 -29.36280 153.08791 34159 ft 392 kts 14°
2026-04-26 13:05 -29.33674 153.09709 33714 ft 390 kts 14°
2026-04-26 13:05 -29.31092 153.10617 33315 ft 387 kts 14°
2026-04-26 13:06 -29.28552 153.11511 32927 ft 385 kts 14°
2026-04-26 13:06 -29.26001 153.12411 32534 ft 382 kts 14°
2026-04-26 13:06 -29.23477 153.13300 32158 ft 379 kts 15°
2026-04-26 13:06 -29.20964 153.14186 31776 ft 376 kts 15°
2026-04-26 13:07 -29.18470 153.15064 31404 ft 373 kts 15°
2026-04-26 13:07 -29.15991 153.15935 31030 ft 371 kts 15°
2026-04-26 13:07 -29.13535 153.16799 30668 ft 368 kts 15°
2026-04-26 13:07 -29.11087 153.17659 30301 ft 366 kts 15°
2026-04-26 13:08 -29.08663 153.18509 29890 ft 363 kts 15°
2026-04-26 13:08 -29.06257 153.19353 29495 ft 360 kts 15°
2026-04-26 13:08 -29.03872 153.20188 29116 ft 356 kts 15°
2026-04-26 13:08 -29.01512 153.21015 28754 ft 353 kts 15°
2026-04-26 13:09 -28.99174 153.21834 28389 ft 349 kts 15°
2026-04-26 13:09 -28.96858 153.22645 28041 ft 346 kts 15°
2026-04-26 13:09 -28.94563 153.23447 27687 ft 343 kts 15°
2026-04-26 13:09 -28.92297 153.24240 27337 ft 340 kts 15°
2026-04-26 13:10 -28.90050 153.25025 26998 ft 336 kts 16°
2026-04-26 13:10 -28.87823 153.25803 26662 ft 333 kts 16°
2026-04-26 13:10 -28.85617 153.26574 26327 ft 330 kts 16°
2026-04-26 13:10 -28.83428 153.27338 25998 ft 327 kts 16°
2026-04-26 13:11 -28.81287 153.28084 25698 ft 324 kts 16°
2026-04-26 13:11 -28.79142 153.28833 25365 ft 321 kts 17°
2026-04-26 13:11 -28.77017 153.29574 25053 ft 318 kts 17°
2026-04-26 13:11 -28.74908 153.30309 24741 ft 315 kts 17°
2026-04-26 13:12 -28.72825 153.31035 24430 ft 312 kts 17°
2026-04-26 13:12 -28.70750 153.31757 24118 ft 310 kts 17°
2026-04-26 13:12 -28.68704 153.32469 23809 ft 307 kts 18°
2026-04-26 13:12 -28.66665 153.33179 23461 ft 304 kts 18°
2026-04-26 13:13 -28.64654 153.33879 23100 ft 301 kts 18°
2026-04-26 13:13 -28.62656 153.34575 22735 ft 299 kts 18°
2026-04-26 13:13 -28.60672 153.35266 22381 ft 297 kts 18°
2026-04-26 13:13 -28.58698 153.35952 22015 ft 295 kts 18°
2026-04-26 13:14 -28.56745 153.36630 21679 ft 292 kts 18°
2026-04-26 13:14 -28.54805 153.37303 21344 ft 290 kts 18°
2026-04-26 13:14 -28.52880 153.37972 21008 ft 288 kts 18°
2026-04-26 13:14 -28.50990 153.38627 20678 ft 286 kts 18°
2026-04-26 13:15 -28.49091 153.39285 20357 ft 284 kts 18°
2026-04-26 13:15 -28.47207 153.39938 20020 ft 282 kts 18°
2026-04-26 13:15 -28.45337 153.40587 19720 ft 280 kts 18°
2026-04-26 13:15 -28.43480 153.41230 19397 ft 278 kts 18°
2026-04-26 13:16 -28.41624 153.41872 19076 ft 277 kts 18°
2026-04-26 13:16 -28.39786 153.42508 18759 ft 275 kts 19°
2026-04-26 13:16 -28.37959 153.43140 18436 ft 274 kts 19°
2026-04-26 13:16 -28.36144 153.43768 18093 ft 272 kts 19°
2026-04-26 13:17 -28.32529 153.45018 17416 ft 269 kts 19°
2026-04-26 13:17 -28.30745 153.45634 17085 ft 268 kts 19°
2026-04-26 13:18 -28.27198 153.46859 16401 ft 265 kts 19°
2026-04-26 13:18 -28.25459 153.47459 16062 ft 263 kts 19°
2026-04-26 13:18 -28.21970 153.48663 15366 ft 261 kts 19°
2026-04-26 13:19 -28.20239 153.49256 15022 ft 259 kts 18°
2026-04-26 13:19 -28.18481 153.49704 14731 ft 259 kts 11°
2026-04-26 13:19 -28.16690 153.49922 14415 ft 259 kts
2026-04-26 13:19 -28.14888 153.49903 14093 ft 259 kts 358°
2026-04-26 13:20 -28.13105 153.49649 13740 ft 259 kts 353°
2026-04-26 13:20 -28.11340 153.49286 13401 ft 257 kts 352°
2026-04-26 13:20 -28.09584 153.48913 13071 ft 256 kts 352°
2026-04-26 13:20 -28.07831 153.48541 12744 ft 255 kts 352°
2026-04-26 13:21 -28.06090 153.48175 12427 ft 254 kts 352°
2026-04-26 13:21 -28.04945 153.47934 12218 ft 253 kts 352°
2026-04-26 13:21 -28.02630 153.47453 11784 ft 252 kts 352°
2026-04-26 13:21 -28.00910 153.47096 11443 ft 250 kts 352°
2026-04-26 13:22 -27.99198 153.46741 11119 ft 249 kts 352°
2026-04-26 13:22 -27.97497 153.46389 10797 ft 248 kts 353°
2026-04-26 13:22 -27.95802 153.46038 10514 ft 247 kts 353°
2026-04-26 13:22 -27.94111 153.45689 10228 ft 246 kts 352°
2026-04-26 13:23 -27.92451 153.45345 9925 ft 246 kts 353°
2026-04-26 13:23 -27.90770 153.44997 9608 ft 245 kts 353°
2026-04-26 13:23 -27.89097 153.44652 9323 ft 244 kts 353°
2026-04-26 13:23 -27.87429 153.44307 9045 ft 242 kts 353°
2026-04-26 13:24 -27.85775 153.43966 9004 ft 242 kts 353°
2026-04-26 13:24 -27.84113 153.43623 9001 ft 243 kts 353°
2026-04-26 13:24 -27.82451 153.43281 8994 ft 243 kts 353°
2026-04-26 13:24 -27.80785 153.42938 8990 ft 243 kts 353°
2026-04-26 13:25 -27.79119 153.42595 8990 ft 243 kts 353°
2026-04-26 13:25 -27.77452 153.42252 8987 ft 243 kts 353°
2026-04-26 13:25 -27.75782 153.41908 8991 ft 243 kts 353°
2026-04-26 13:25 -27.74118 153.41565 8988 ft 243 kts 353°
2026-04-26 13:26 -27.72449 153.41221 8988 ft 243 kts 353°
2026-04-26 13:26 -27.70804 153.40882 8989 ft 243 kts 353°
2026-04-26 13:26 -27.69143 153.40540 8987 ft 243 kts 353°
2026-04-26 13:26 -27.67455 153.40193 8995 ft 243 kts 353°
2026-04-26 13:27 -27.65811 153.39874 8977 ft 243 kts 355°
2026-04-26 13:27 -27.64134 153.39656 8987 ft 242 kts 359°
2026-04-26 13:27 -27.62458 153.39558 8991 ft 241 kts
2026-04-26 13:27 -27.60778 153.39582 8988 ft 240 kts
2026-04-26 13:28 -27.59100 153.39661 8976 ft 240 kts
2026-04-26 13:28 -27.57431 153.39741 8985 ft 240 kts
2026-04-26 13:28 -27.55752 153.39821 8982 ft 240 kts
2026-04-26 13:28 -27.54082 153.39900 8980 ft 240 kts
2026-04-26 13:29 -27.52409 153.39977 8973 ft 240 kts
2026-04-26 13:29 -27.51301 153.40029 8972 ft 241 kts
2026-04-26 13:29 -27.49064 153.40131 8978 ft 241 kts
2026-04-26 13:29 -27.47387 153.40208 8970 ft 241 kts
2026-04-26 13:30 -27.45732 153.40283 8977 ft 241 kts
2026-04-26 13:30 -27.44031 153.40361 8972 ft 241 kts
2026-04-26 13:30 -27.42378 153.40437 8977 ft 241 kts
2026-04-26 13:30 -27.40696 153.40513 8979 ft 241 kts
2026-04-26 13:31 -27.39020 153.40590 8958 ft 241 kts
2026-04-26 13:31 -27.37343 153.40667 8973 ft 241 kts
2026-04-26 13:31 -27.35662 153.40745 8791 ft 242 kts
2026-04-26 13:31 -27.33973 153.40822 8486 ft 242 kts
2026-04-26 13:32 -27.32298 153.40897 8228 ft 240 kts
2026-04-26 13:32 -27.30630 153.40973 7968 ft 238 kts
2026-04-26 13:32 -27.28977 153.41048 7707 ft 237 kts
2026-04-26 13:32 -27.27333 153.41122 7452 ft 237 kts
2026-04-26 13:33 -27.25708 153.41197 7214 ft 236 kts
2026-04-26 13:33 -27.24068 153.41272 6962 ft 236 kts
2026-04-26 13:33 -27.22430 153.41347 6708 ft 235 kts
2026-04-26 13:33 -27.20798 153.41404 6448 ft 236 kts 360°
2026-04-26 13:34 -27.19188 153.40991 6182 ft 240 kts 337°
2026-04-26 13:34 -27.17781 153.39961 5923 ft 241 kts 323°
2026-04-26 13:34 -27.16498 153.38741 5665 ft 241 kts 320°
2026-04-26 13:34 -27.15661 153.37920 5512 ft 241 kts 320°
2026-04-26 13:35 -27.13973 153.36277 5315 ft 239 kts 318°
2026-04-26 13:35 -27.13030 153.34778 5223 ft 233 kts 286°
2026-04-26 13:35 -27.12902 153.33012 5082 ft 227 kts 253°
2026-04-26 13:35 -27.13468 153.31376 4849 ft 222 kts 239°
2026-04-26 13:36 -27.14174 153.29838 4599 ft 221 kts 238°
2026-04-26 13:36 -27.14881 153.28306 4410 ft 220 kts 239°
2026-04-26 13:36 -27.15572 153.26758 4407 ft 222 kts 238°
2026-04-26 13:36 -27.16498 153.25422 4348 ft 214 kts 211°
2026-04-26 13:37 -27.17759 153.24579 4160 ft 209 kts 201°
2026-04-26 13:37 -27.19076 153.23898 3979 ft 207 kts 199°
2026-04-26 13:37 -27.20378 153.23228 3750 ft 209 kts 200°
2026-04-26 13:37 -27.21700 153.22512 3465 ft 207 kts 201°
2026-04-26 13:38 -27.22968 153.21798 3171 ft 207 kts 201°
2026-04-26 13:38 -27.24239 153.21065 2936 ft 201 kts 202°
2026-04-26 13:38 -27.25469 153.20348 2682 ft 193 kts 201°
2026-04-26 13:38 -27.26623 153.19678 2391 ft 185 kts 201°
2026-04-26 13:39 -27.27737 153.19031 2137 ft 175 kts 201°
2026-04-26 13:39 -27.28794 153.18422 1914 ft 168 kts 201°
2026-04-26 13:39 -27.29807 153.17835 1697 ft 157 kts 200°
2026-04-26 13:39 -27.30743 153.17295 1469 ft 146 kts 200°
2026-04-26 13:40 -27.31632 153.16783 1300 ft 142 kts 200°
2026-04-26 13:40 -27.32513 153.16280 1134 ft 143 kts 201°
2026-04-26 13:40 -27.33395 153.15774 945 ft 142 kts 202°
2026-04-26 13:40 -27.34269 153.15270 753 ft 141 kts 205°
2026-04-26 13:41 -27.35140 153.14767 570 ft 141 kts 205°
2026-04-26 13:41 -27.36008 153.14267 383 ft 140 kts 206°
2026-04-26 13:41 -27.36874 153.13770 196 ft 139 kts 206°
2026-04-26 13:41 -27.37727 153.13281 31 ft 133 kts 207°
2026-04-26 13:42 -27.38484 153.12846 29 ft 105 kts 207°
2026-04-26 13:42 -27.38909 153.12573 27 ft 47 kts 216°
2026-04-26 13:42 -27.39077 153.12338 27 ft 26 kts 237°
2026-04-26 13:42 -27.39131 153.12224 26 ft 13 kts 259°
2026-04-26 13:43 -27.39112 153.12161 26 ft 5 kts 322°
2026-04-26 13:43 -27.39091 153.12145 26 ft 1 kts 326°
2026-04-26 13:43 -27.39089 153.12144 26 ft 0 kts 326°
2026-04-26 13:43 -27.39074 153.12132 26 ft 8 kts 323°
2026-04-26 13:44 -27.39024 153.12070 26 ft 13 kts 300°
2026-04-26 13:44 -27.38977 153.11986 29 ft 11 kts 316°
2026-04-26 13:44 -27.38928 153.11961 29 ft 9 kts 358°
2026-04-26 13:44 -27.38924 153.11961 29 ft 0 kts 357°